DAL9389 KATL-KELP

Flight info

Callsign DAL9389
Flight time N/A
Altitude 32000
Route KAJIN2 STNGA KM18K KF18I/N0471F340 EIC ABI BGS LIFFT SAMMR3
Aircraft B738/M-SDE2E3FGHIRWXY/LB1

Departure

Time 2026-04-30 20:21
Airport Hartsfield Jackson Atlanta International Airport (KATL)

Arrival

Time N/A
Airport El Paso International Airport (KELP)
Time Latitude Longitude Altitude Speed Heading
2026-04-30 20:01 33.64264 -84.43652 1023 ft 0 kts 91°
2026-04-30 20:10 33.64264 -84.43655 1023 ft 1 kts 91°
2026-04-30 20:10 33.64264 -84.43675 1023 ft 3 kts 89°
2026-04-30 20:10 33.64262 -84.43698 1023 ft 3 kts 73°
2026-04-30 20:11 33.64242 -84.43737 1023 ft 2 kts 39°
2026-04-30 20:11 33.64239 -84.43740 1023 ft 1 kts 38°
2026-04-30 20:13 33.64241 -84.43738 1023 ft 2 kts 38°
2026-04-30 20:13 33.64294 -84.43724 1024 ft 11 kts
2026-04-30 20:14 33.64371 -84.43724 1025 ft 11 kts 360°
2026-04-30 20:14 33.64439 -84.43698 1030 ft 11 kts 46°
2026-04-30 20:14 33.64460 -84.43616 1031 ft 10 kts 85°
2026-04-30 20:14 33.64465 -84.43527 1030 ft 12 kts 87°
2026-04-30 20:15 33.64490 -84.43430 1029 ft 13 kts 38°
2026-04-30 20:15 33.64537 -84.43345 1031 ft 13 kts 79°
2026-04-30 20:15 33.64542 -84.43241 1031 ft 12 kts 88°
2026-04-30 20:15 33.64545 -84.43121 1030 ft 17 kts 89°
2026-04-30 20:16 33.64546 -84.42964 1026 ft 20 kts 90°
2026-04-30 20:16 33.64548 -84.42796 1022 ft 20 kts 89°
2026-04-30 20:16 33.64548 -84.42632 1018 ft 19 kts 90°
2026-04-30 20:16 33.64548 -84.42473 1014 ft 19 kts 90°
2026-04-30 20:17 33.64547 -84.42319 1012 ft 18 kts 90°
2026-04-30 20:17 33.64546 -84.42170 1012 ft 17 kts 91°
2026-04-30 20:17 33.64545 -84.42026 1012 ft 18 kts 90°
2026-04-30 20:17 33.64544 -84.41867 1012 ft 21 kts 90°
2026-04-30 20:18 33.64546 -84.41685 1015 ft 23 kts 89°
2026-04-30 20:18 33.64548 -84.41486 1014 ft 25 kts 90°
2026-04-30 20:18 33.64549 -84.41276 1012 ft 25 kts 89°
2026-04-30 20:18 33.64550 -84.41077 1009 ft 23 kts 90°
2026-04-30 20:19 33.64551 -84.40888 1003 ft 22 kts 90°
2026-04-30 20:19 33.64568 -84.40768 1001 ft 22 kts 73°
2026-04-30 20:19 33.64593 -84.40583 998 ft 12 kts 43°
2026-04-30 20:19 33.64658 -84.40576 1000 ft 9 kts 318°
2026-04-30 20:20 33.64673 -84.40645 1001 ft 9 kts 277°
2026-04-30 20:20 33.64676 -84.40681 999 ft 0 kts 273°
2026-04-30 20:20 33.64676 -84.40684 999 ft 3 kts 272°
2026-04-30 20:20 33.64679 -84.41005 1008 ft 77 kts 270°
2026-04-30 20:21 33.64682 -84.41940 1017 ft 145 kts 272°
2026-04-30 20:21 33.64690 -84.43269 1549 ft 161 kts 276°
2026-04-30 20:21 33.64653 -84.44627 2405 ft 171 kts 272°
2026-04-30 20:21 33.64678 -84.46052 3237 ft 181 kts 279°
2026-04-30 20:22 33.64936 -84.47640 3571 ft 207 kts 285°
2026-04-30 20:22 33.65295 -84.49428 3932 ft 232 kts 287°
2026-04-30 20:22 33.65670 -84.51332 4541 ft 243 kts 287°
2026-04-30 20:22 33.66079 -84.53413 4892 ft 267 kts 287°
2026-04-30 20:23 33.66490 -84.55596 5757 ft 267 kts 285°
2026-04-30 20:23 33.66898 -84.57746 6745 ft 264 kts 284°
2026-04-30 20:23 33.67283 -84.59887 7680 ft 261 kts 283°
2026-04-30 20:23 33.67648 -84.62036 8507 ft 263 kts 282°
2026-04-30 20:24 33.68010 -84.64204 9384 ft 266 kts 281°
2026-04-30 20:24 33.68380 -84.66403 10144 ft 272 kts 281°
2026-04-30 20:24 33.68768 -84.68706 10498 ft 293 kts 281°
2026-04-30 20:24 33.69189 -84.71199 10693 ft 316 kts 281°
2026-04-30 20:25 33.69651 -84.76780 11000 ft 360 kts 261°
2026-04-30 20:25 33.68876 -84.79702 11347 ft 373 kts 251°
2026-04-30 20:26 33.66967 -84.85529 12702 ft 376 kts 250°
2026-04-30 20:26 33.65036 -84.91393 13966 ft 380 kts 250°
2026-04-30 20:26 33.64071 -84.94351 14525 ft 382 kts 251°
2026-04-30 20:27 33.62144 -85.00300 15706 ft 383 kts 251°
2026-04-30 20:27 33.60211 -85.06279 16834 ft 386 kts 252°
2026-04-30 20:28 33.58260 -85.12307 17888 ft 389 kts 252°
2026-04-30 20:28 33.56290 -85.18377 18841 ft 392 kts 252°
2026-04-30 20:29 33.54457 -85.24511 19750 ft 389 kts 258°
2026-04-30 20:30 33.52740 -85.34033 21012 ft 391 kts 260°
2026-04-30 20:30 33.51048 -85.43571 22140 ft 393 kts 259°
2026-04-30 20:31 33.49274 -85.53188 23132 ft 396 kts 259°
2026-04-30 20:32 33.47467 -85.62859 23984 ft 398 kts 259°
2026-04-30 20:32 33.46251 -85.69343 24440 ft 400 kts 259°
2026-04-30 20:33 33.45640 -85.72593 24664 ft 401 kts 259°
2026-04-30 20:33 33.44619 -85.78011 25049 ft 402 kts 259°
2026-04-30 20:33 33.44001 -85.81282 25236 ft 403 kts 260°
2026-04-30 20:34 33.42760 -85.87845 25665 ft 404 kts 260°
2026-04-30 20:34 33.41513 -85.94413 26123 ft 405 kts 260°
2026-04-30 20:35 33.40888 -85.97692 26396 ft 403 kts 260°
2026-04-30 20:35 33.40266 -86.00955 26707 ft 401 kts 260°
2026-04-30 20:35 33.39026 -86.07443 27325 ft 399 kts 261°
2026-04-30 20:36 33.38408 -86.10670 27637 ft 397 kts 260°
2026-04-30 20:36 33.37792 -86.13882 27988 ft 395 kts 261°
2026-04-30 20:36 33.36566 -86.20266 28634 ft 393 kts 261°
2026-04-30 20:37 33.35953 -86.23447 28956 ft 392 kts 261°
2026-04-30 20:37 33.35343 -86.26611 29312 ft 390 kts 261°
2026-04-30 20:37 33.34734 -86.29764 29679 ft 388 kts 262°
2026-04-30 20:37 33.34128 -86.32897 30060 ft 386 kts 262°
2026-04-30 20:38 33.33524 -86.36014 30352 ft 385 kts 262°
2026-04-30 20:38 33.32921 -86.39128 30628 ft 384 kts 262°
2026-04-30 20:38 33.32318 -86.42229 30926 ft 382 kts 262°
2026-04-30 20:39 33.31119 -86.48394 31487 ft 380 kts 262°
2026-04-30 20:39 33.30519 -86.51471 31744 ft 379 kts 262°
2026-04-30 20:39 33.29921 -86.54532 31986 ft 379 kts 262°
2026-04-30 20:40 33.28718 -86.60686 31977 ft 380 kts 262°
2026-04-30 20:40 33.27516 -86.66808 31990 ft 378 kts 262°
2026-04-30 20:41 33.25713 -86.75966 31989 ft 377 kts 262°
2026-04-30 20:41 33.24507 -86.82069 31985 ft 378 kts 262°
2026-04-30 20:42 33.23307 -86.88128 32012 ft 377 kts 262°
2026-04-30 20:43 33.21487 -86.97280 32011 ft 378 kts 262°
2026-04-30 20:43 33.20266 -87.03402 32007 ft 379 kts 262°
2026-04-30 20:44 33.18428 -87.12584 31984 ft 380 kts 262°
2026-04-30 20:45 33.15964 -87.24835 31967 ft 380 kts 262°
2026-04-30 20:45 33.14727 -87.30962 31971 ft 380 kts 262°
2026-04-30 20:46 33.12244 -87.43214 31992 ft 380 kts 261°
2026-04-30 20:47 33.11486 -87.52485 32007 ft 374 kts 270°
2026-04-30 20:48 33.11181 -87.61813 32004 ft 376 kts 270°
2026-04-30 20:48 33.10956 -87.68040 32003 ft 376 kts 270°
2026-04-30 20:49 33.10721 -87.74269 31998 ft 376 kts 270°
2026-04-30 20:50 33.10359 -87.83617 31992 ft 376 kts 270°
2026-04-30 20:50 33.10112 -87.89856 31981 ft 377 kts 270°
2026-04-30 20:51 33.09865 -87.96057 31978 ft 377 kts 270°
2026-04-30 20:51 33.09485 -88.05425 31980 ft 377 kts 270°
2026-04-30 20:52 33.09227 -88.11681 31979 ft 378 kts 269°
2026-04-30 20:53 33.08835 -88.21065 31983 ft 378 kts 269°
2026-04-30 20:53 33.08569 -88.27325 31985 ft 378 kts 269°
2026-04-30 20:54 33.08164 -88.36714 31990 ft 378 kts 269°
2026-04-30 20:55 33.07753 -88.46107 31991 ft 378 kts 269°
2026-04-30 20:55 33.07474 -88.52371 31994 ft 378 kts 269°
2026-04-30 20:56 33.07051 -88.61764 31992 ft 378 kts 269°
2026-04-30 20:57 33.06620 -88.71157 31995 ft 378 kts 269°
2026-04-30 20:57 33.06329 -88.77419 32003 ft 378 kts 269°
2026-04-30 20:58 33.05887 -88.86813 32014 ft 378 kts 269°
2026-04-30 20:58 33.05588 -88.93074 32020 ft 379 kts 268°
2026-04-30 20:59 33.05133 -89.02468 32026 ft 378 kts 268°
2026-04-30 21:00 33.04516 -89.15005 32017 ft 379 kts 268°
2026-04-30 21:01 33.04045 -89.24399 32012 ft 379 kts 268°
2026-04-30 21:02 33.03570 -89.33746 32011 ft 378 kts 268°
2026-04-30 21:02 33.03248 -89.40004 31998 ft 378 kts 268°
2026-04-30 21:03 33.02922 -89.46264 31992 ft 378 kts 268°
2026-04-30 21:03 33.02594 -89.52522 31992 ft 379 kts 268°
2026-04-30 21:04 33.02262 -89.58783 31995 ft 379 kts 268°
2026-04-30 21:04 33.01759 -89.68171 31995 ft 379 kts 268°
2026-04-30 21:05 33.01419 -89.74431 31997 ft 379 kts 268°
2026-04-30 21:05 33.01076 -89.80691 31993 ft 379 kts 268°
2026-04-30 21:06 33.00730 -89.86950 31997 ft 379 kts 268°
2026-04-30 21:06 33.00382 -89.93210 31998 ft 379 kts 268°
2026-04-30 21:07 33.00036 -89.99424 31988 ft 378 kts 268°
2026-04-30 21:07 32.99995 -90.05685 31990 ft 378 kts 271°
2026-04-30 21:08 33.00062 -90.11946 31992 ft 378 kts 271°
2026-04-30 21:08 33.00121 -90.18207 31988 ft 378 kts 271°
2026-04-30 21:09 33.00168 -90.24466 31994 ft 378 kts 271°
2026-04-30 21:09 33.00206 -90.30728 31990 ft 378 kts 271°
2026-04-30 21:10 33.00239 -90.36987 32003 ft 378 kts 271°
2026-04-30 21:10 33.00269 -90.43240 32000 ft 378 kts 271°
2026-04-30 21:11 33.00296 -90.49495 31995 ft 378 kts 271°
2026-04-30 21:11 33.00319 -90.55753 31998 ft 378 kts 271°
2026-04-30 21:12 33.00340 -90.62008 31999 ft 377 kts 271°
2026-04-30 21:12 33.00357 -90.68258 32016 ft 377 kts 271°
2026-04-30 21:13 33.00372 -90.74514 32015 ft 378 kts 271°
2026-04-30 21:13 33.00383 -90.80768 32009 ft 378 kts 271°
2026-04-30 21:14 33.00391 -90.87025 32006 ft 378 kts 271°
2026-04-30 21:14 33.00396 -90.93279 32017 ft 378 kts 271°
2026-04-30 21:15 33.00397 -90.99536 32023 ft 378 kts 271°
2026-04-30 21:15 33.00396 -91.05796 32005 ft 378 kts 271°
2026-04-30 21:16 33.00392 -91.12051 32003 ft 378 kts 271°
2026-04-30 21:16 33.00384 -91.18306 31999 ft 378 kts 271°
2026-04-30 21:17 33.00373 -91.24565 31992 ft 378 kts 271°
2026-04-30 21:17 33.00360 -91.30820 32007 ft 378 kts 270°
2026-04-30 21:18 33.00343 -91.37079 32011 ft 378 kts 270°
2026-04-30 21:18 33.00323 -91.43293 32023 ft 378 kts 270°
2026-04-30 21:19 33.00300 -91.49588 32020 ft 378 kts 270°
2026-04-30 21:19 33.00273 -91.55844 32028 ft 378 kts 270°
2026-04-30 21:20 33.00244 -91.62061 32026 ft 378 kts 270°
2026-04-30 21:20 33.00217 -91.67300 32022 ft 378 kts 270°
2026-04-30 21:21 33.00176 -91.74571 32021 ft 378 kts 270°
2026-04-30 21:22 33.00124 -91.82949 32018 ft 378 kts 270°
2026-04-30 21:23 33.00036 -91.95469 32027 ft 378 kts 270°
2026-04-30 21:23 32.99471 -92.04796 32021 ft 379 kts 264°
2026-04-30 21:24 32.98705 -92.11016 32019 ft 379 kts 264°
2026-04-30 21:24 32.97942 -92.17232 32025 ft 380 kts 264°
2026-04-30 21:25 32.96807 -92.26567 32024 ft 380 kts 264°
2026-04-30 21:26 32.95671 -92.35900 32024 ft 380 kts 264°
2026-04-30 21:27 32.94530 -92.45233 32029 ft 380 kts 264°
2026-04-30 21:27 32.93764 -92.51462 32028 ft 380 kts 264°
2026-04-30 21:28 32.92608 -92.60806 32028 ft 380 kts 264°
2026-04-30 21:29 32.91447 -92.70136 32028 ft 380 kts 264°
2026-04-30 21:30 32.89494 -92.85701 32035 ft 381 kts 264°
2026-04-30 21:31 32.87523 -93.01250 32027 ft 381 kts 264°
2026-04-30 21:32 32.86330 -93.10588 32031 ft 381 kts 264°
2026-04-30 21:32 32.85530 -93.16813 32032 ft 381 kts 264°
2026-04-30 21:33 32.84324 -93.26154 32027 ft 381 kts 264°
2026-04-30 21:34 32.83517 -93.32380 32031 ft 381 kts 264°
2026-04-30 21:34 32.82298 -93.41726 32029 ft 381 kts 264°
2026-04-30 21:35 32.81482 -93.47956 32024 ft 381 kts 263°
2026-04-30 21:35 32.80662 -93.54185 32023 ft 381 kts 263°
2026-04-30 21:36 32.79840 -93.60412 32015 ft 381 kts 263°
2026-04-30 21:37 32.78192 -93.72828 32011 ft 382 kts 263°
2026-04-30 21:37 32.77359 -93.79063 32014 ft 382 kts 263°
2026-04-30 21:38 32.76955 -93.85330 32021 ft 380 kts 269°
2026-04-30 21:38 32.76820 -93.91610 32018 ft 380 kts 269°
2026-04-30 21:39 32.76677 -93.97903 32011 ft 381 kts 269°
2026-04-30 21:39 32.76523 -94.04199 32001 ft 381 kts 269°
2026-04-30 21:40 32.76361 -94.10489 32000 ft 381 kts 269°
2026-04-30 21:40 32.76196 -94.16771 32001 ft 380 kts 269°
2026-04-30 21:41 32.76027 -94.23049 32005 ft 380 kts 269°
2026-04-30 21:41 32.75855 -94.29340 32009 ft 382 kts 269°
2026-04-30 21:42 32.75680 -94.35636 32003 ft 381 kts 269°
2026-04-30 21:42 32.75501 -94.41931 32000 ft 381 kts 269°
2026-04-30 21:43 32.75319 -94.48217 32002 ft 381 kts 269°
2026-04-30 21:43 32.75135 -94.54502 31998 ft 381 kts 269°
2026-04-30 21:44 32.74947 -94.60783 32009 ft 380 kts 269°
2026-04-30 21:44 32.74756 -94.67063 32003 ft 380 kts 269°
2026-04-30 21:45 32.74562 -94.73341 32008 ft 380 kts 269°
2026-04-30 21:45 32.74365 -94.79626 32019 ft 381 kts 269°
2026-04-30 21:46 32.74164 -94.85943 32007 ft 384 kts 269°
2026-04-30 21:46 32.73959 -94.92282 32002 ft 384 kts 269°
2026-04-30 21:47 32.73750 -94.98612 31998 ft 382 kts 269°
2026-04-30 21:47 32.73541 -95.04863 32003 ft 381 kts 269°
2026-04-30 21:48 32.73329 -95.11140 32005 ft 380 kts 269°
2026-04-30 21:48 32.73113 -95.17404 32006 ft 379 kts 269°
2026-04-30 21:49 32.72895 -95.23665 32002 ft 379 kts 269°
2026-04-30 21:49 32.72673 -95.29926 32001 ft 379 kts 269°
2026-04-30 21:50 32.72449 -95.36186 31999 ft 380 kts 269°
2026-04-30 21:50 32.72221 -95.42455 32000 ft 380 kts 269°
2026-04-30 21:51 32.71989 -95.48728 31999 ft 380 kts 269°
2026-04-30 21:51 32.71755 -95.54999 32003 ft 381 kts 269°
2026-04-30 21:52 32.71517 -95.61283 32000 ft 381 kts 269°
2026-04-30 21:52 32.71276 -95.67564 32001 ft 381 kts 269°
2026-04-30 21:53 32.71032 -95.73841 31999 ft 381 kts 269°
2026-04-30 21:53 32.70784 -95.80120 32000 ft 380 kts 268°
2026-04-30 21:54 32.70534 -95.86394 32000 ft 380 kts 268°
2026-04-30 21:54 32.70281 -95.92672 31995 ft 380 kts 268°
2026-04-30 21:55 32.70024 -95.98939 31999 ft 380 kts 268°
2026-04-30 21:55 32.69765 -96.05212 31999 ft 380 kts 268°
2026-04-30 21:56 32.69502 -96.11475 31998 ft 380 kts 268°
2026-04-30 21:56 32.69237 -96.17743 31999 ft 380 kts 268°
2026-04-30 21:57 32.68968 -96.24008 32000 ft 380 kts 268°
2026-04-30 21:57 32.68696 -96.30270 32000 ft 380 kts 268°
2026-04-30 21:58 32.68422 -96.36529 32017 ft 380 kts 268°
2026-04-30 21:58 32.68144 -96.42785 32027 ft 379 kts 268°
2026-04-30 21:59 32.67863 -96.49037 32025 ft 380 kts 268°
2026-04-30 22:00 32.67436 -96.58418 32027 ft 379 kts 268°
2026-04-30 22:00 32.67003 -96.67794 32024 ft 379 kts 268°
2026-04-30 22:01 32.66710 -96.74035 32010 ft 379 kts 268°
2026-04-30 22:01 32.66416 -96.80240 32007 ft 379 kts 268°
2026-04-30 22:02 32.66118 -96.86476 32008 ft 379 kts 268°
2026-04-30 22:02 32.65816 -96.92719 32012 ft 379 kts 268°
2026-04-30 22:03 32.65511 -96.98962 32031 ft 379 kts 268°
2026-04-30 22:03 32.65202 -97.05209 32000 ft 379 kts 268°
2026-04-30 22:04 32.64891 -97.11450 32001 ft 379 kts 268°
2026-04-30 22:05 32.64419 -97.20806 31999 ft 379 kts 268°
2026-04-30 22:05 32.64100 -97.27042 32008 ft 379 kts 268°
2026-04-30 22:06 32.63778 -97.33278 32008 ft 379 kts 267°
2026-04-30 22:06 32.63290 -97.42632 32005 ft 379 kts 267°
2026-04-30 22:07 32.62960 -97.48866 31992 ft 379 kts 267°
2026-04-30 22:07 32.62628 -97.55100 31996 ft 379 kts 267°
2026-04-30 22:08 32.62292 -97.61341 31991 ft 379 kts 267°
2026-04-30 22:08 32.61953 -97.67570 31971 ft 379 kts 267°
2026-04-30 22:09 32.61669 -97.72756 31969 ft 379 kts 267°
2026-04-30 22:09 32.61324 -97.78999 31966 ft 379 kts 267°
2026-04-30 22:10 32.60976 -97.85244 31968 ft 380 kts 267°
2026-04-30 22:10 32.60624 -97.91492 31970 ft 380 kts 267°
2026-04-30 22:11 32.60091 -98.00864 31992 ft 380 kts 267°
2026-04-30 22:12 32.59732 -98.07112 31989 ft 380 kts 267°
2026-04-30 22:12 32.59369 -98.13360 31994 ft 380 kts 267°
2026-04-30 22:13 32.59004 -98.19609 31983 ft 380 kts 267°
2026-04-30 22:13 32.58635 -98.25859 31994 ft 379 kts 267°
2026-04-30 22:14 32.58264 -98.32098 31979 ft 380 kts 266°
2026-04-30 22:14 32.57889 -98.38343 31975 ft 380 kts 266°
2026-04-30 22:15 32.57512 -98.44584 31983 ft 380 kts 266°
2026-04-30 22:15 32.57131 -98.50829 31987 ft 379 kts 266°
2026-04-30 22:16 32.56747 -98.57068 31993 ft 379 kts 266°
2026-04-30 22:17 32.55970 -98.69544 32002 ft 380 kts 266°
2026-04-30 22:17 32.55379 -98.78912 32010 ft 380 kts 266°
2026-04-30 22:18 32.54781 -98.88280 32011 ft 380 kts 266°
2026-04-30 22:19 32.54175 -98.97647 32002 ft 380 kts 266°
2026-04-30 22:20 32.53563 -99.07011 31997 ft 380 kts 266°
2026-04-30 22:20 32.52944 -99.16372 31995 ft 380 kts 266°
2026-04-30 22:21 32.52528 -99.22611 31981 ft 380 kts 266°
2026-04-30 22:21 32.52112 -99.28799 31989 ft 380 kts 266°
2026-04-30 22:22 32.51689 -99.35035 31992 ft 379 kts 266°
2026-04-30 22:22 32.51264 -99.41271 31996 ft 379 kts 266°
2026-04-30 22:23 32.50836 -99.47495 31996 ft 379 kts 266°
2026-04-30 22:23 32.50405 -99.53721 32002 ft 379 kts 266°
2026-04-30 22:24 32.49971 -99.59945 32004 ft 379 kts 266°
2026-04-30 22:24 32.49534 -99.66170 32013 ft 379 kts 266°
2026-04-30 22:25 32.49094 -99.72393 32006 ft 379 kts 266°
2026-04-30 22:25 32.48651 -99.78610 31989 ft 379 kts 266°
2026-04-30 22:26 32.47992 -99.87935 31993 ft 379 kts 266°
2026-04-30 22:27 32.47656 -99.94161 31988 ft 379 kts 267°
2026-04-30 22:27 32.47182 -100.03499 31990 ft 379 kts 267°
2026-04-30 22:28 32.46685 -100.12843 31991 ft 379 kts 267°
2026-04-30 22:29 32.46004 -100.25294 32033 ft 379 kts 266°
2026-04-30 22:31 32.44781 -100.47097 32056 ft 379 kts 266°
2026-04-30 22:32 32.43884 -100.62665 32043 ft 379 kts 266°
2026-04-30 22:33 32.42968 -100.78239 32005 ft 380 kts 266°
2026-04-30 22:35 32.42031 -100.93821 31986 ft 380 kts 266°
2026-04-30 22:36 32.41076 -101.09399 31987 ft 380 kts 266°
2026-04-30 22:37 32.40300 -101.21825 31979 ft 380 kts 266°
2026-04-30 22:38 32.39510 -101.34287 31987 ft 380 kts 266°
2026-04-30 22:39 32.38908 -101.43657 31994 ft 381 kts 266°
2026-04-30 22:40 32.36878 -101.62360 31992 ft 383 kts 262°
2026-04-30 22:41 32.34899 -101.77926 31979 ft 383 kts 262°
2026-04-30 22:43 32.32528 -101.96556 31960 ft 381 kts 262°
2026-04-30 22:44 32.30937 -102.08937 31964 ft 381 kts 262°
2026-04-30 22:45 32.28534 -102.27453 31972 ft 379 kts 262°
2026-04-30 22:47 32.26106 -102.45934 31957 ft 380 kts 262°
2026-04-30 22:48 32.24470 -102.58276 31960 ft 381 kts 262°
2026-04-30 22:49 32.21986 -102.76826 31952 ft 383 kts 262°
2026-04-30 22:51 32.19455 -102.95517 31943 ft 385 kts 262°
2026-04-30 22:52 32.18175 -103.04889 31946 ft 386 kts 262°
2026-04-30 22:53 32.16458 -103.17375 31933 ft 385 kts 262°
2026-04-30 22:53 32.15166 -103.26709 31935 ft 384 kts 262°
2026-04-30 22:55 32.13151 -103.41169 31923 ft 382 kts 262°
2026-04-30 22:56 32.11416 -103.53518 31921 ft 381 kts 262°
2026-04-30 22:57 32.09237 -103.68907 31919 ft 380 kts 262°
2026-04-30 22:58 32.07483 -103.81193 31918 ft 380 kts 262°
2026-04-30 22:59 32.04832 -103.99598 31911 ft 380 kts 262°